This is the latest recevied weather packets stored in our database for station/object KC7WRB. If no packets are shown the sender has not sent any weather packets the latest 10 day(s).
| Time | Temp. | Humidity | Pressure | Rain* | Wind** | Luminosity | Snow |
|---|---|---|---|---|---|---|---|
| 1777725692 | 6.11° C | 41% | 1016.2 hPa | 0 mm | - | 0 W/m² | - |
| 1777725391 | 5.56° C | 47% | 1016.2 hPa | 0 mm | - | 0 W/m² | - |
| 1777725087 | 5.56° C | 48% | 1016.4 hPa | 0 mm | - | 0 W/m² | - |
| 1777724784 | 6.11° C | 47% | 1016.3 hPa | 0 mm | - | 0 W/m² | - |
| 1777724480 | 7.22° C | 43% | 1016.2 hPa | 0 mm | - | 0 W/m² | - |
| 1777724179 | 7.22° C | 42% | 1016.3 hPa | 0 mm | - | 0 W/m² | - |
| 1777723876 | 6.67° C | 43% | 1016.2 hPa | 0 mm | - | 0 W/m² | - |
| 1777723572 | 6.11° C | 45% | 1016.3 hPa | 0 mm | - | 0 W/m² | - |
| 1777723269 | 6.67° C | 45% | 1016.4 hPa | 0 mm | - | 0 W/m² | - |
| 1777722967 | 6.67° C | 45% | 1016.3 hPa | 0 mm | - | 0 W/m² | - |
| 1777722662 | 6.11° C | 45% | 1016.3 hPa | 0 mm | - | 0 W/m² | - |
| 1777722359 | 6.67° C | 47% | 1016.2 hPa | 0 mm | - | 0 W/m² | - |
| 1777722056 | 6.67° C | 42% | 1016.3 hPa | 0 mm | - | 0 W/m² | - |
| 1777721753 | 6.11° C | 41% | 1016.3 hPa | 0 mm | - | 0 W/m² | - |
| 1777721452 | 6.11° C | 41% | 1016.2 hPa | 0 mm | - | 0 W/m² | - |
| 1777721149 | 6.67° C | 39% | 1016.1 hPa | 0 mm | - | 0 W/m² | - |
| 1777720847 | 6.11° C | 39% | 1016.3 hPa | 0 mm | - | 0 W/m² | - |
| 1777720544 | 6.11° C | 41% | 1016.4 hPa | 0 mm | - | 0 W/m² | - |
| 1777720241 | 6.67° C | 43% | 1016.3 hPa | 0 mm | - | 0 W/m² | - |
| 1777719938 | 6.67° C | 42% | 1016.2 hPa | 0 mm | - | 0 W/m² | - |
| 1777719636 | 6.67° C | 43% | 1016.2 hPa | 0 mm | - | 0 W/m² | - |
| 1777719333 | 6.67° C | 43% | 1016.2 hPa | 0 mm | - | 0 W/m² | - |
| 1777719031 | 6.67° C | 40% | 1016.4 hPa | 0 mm | - | 0 W/m² | - |
| 1777718728 | 7.22° C | 36% | 1016.2 hPa | 0 mm | - | 0 W/m² | - |
| 1777718425 | 7.22° C | 36% | 1016.1 hPa | 0 mm | - | 0 W/m² | - |
* Rain latest hour (hover to see other rain measurements)
** Current wind speed in m/s (hover to see current wind gust speed)